GW4214 Weather Reports


Display with metric or nautical units.
time (UTC)temp
F
wind
direction
speed
MPH
gust
MPH
rain 1hr
in
rain 24hr
in
rain mn
in
humidity
%
barometer
mb
20260902123722 61 184 2.0 3.0 0.00 0.00 0.00 82 1011.5
20260902123218 61 167 4.0 5.0 0.00 0.00 0.00 82 1011.1
20260902122718 61 180 3.0 5.0 0.00 0.00 0.00 82 1011.1
20260902122214 61 173 3.0 3.0 0.00 0.00 0.00 82 1011.5
20260902121713 61 175 2.0 2.0 0.00 0.00 0.00 81 1011.5
20260902121208 61 189 1.0 2.0 0.00 0.00 0.00 81 1011.5
20260902120704 61 169 2.0 2.0 0.00 0.00 0.00 81 1011.5
20260902120201 61 166 4.0 5.0 0.00 0.00 0.00 81 1011.8
20260902115700 61 168 2.0 3.0 0.00 0.00 0.00 81 1011.5
20260902115156 61 179 1.0 2.0 0.00 0.00 0.00 81 1011.8
20260902114652 61 171 5.0 6.0 0.00 0.00 0.00 81 1011.8
20260902114147 61 199 1.0 2.0 0.00 0.00 0.00 81 1012.5
20260902113643 61 194 1.0 1.0 0.00 0.00 0.00 81 1011.8
20260902113137 61 184 2.0 5.0 0.00 0.00 0.00 81 1012.1
20260902112632 61 84 3.0 3.0 0.00 0.00 0.00 81 1012.1
20260902112129 60 178 1.0 2.0 0.00 0.00 0.00 81 1012.1
20260902111625 60 180 3.0 6.0 0.00 0.00 0.00 81 1012.1
20260902111121 60 189 1.0 1.0 0.00 0.00 0.00 82 1012.1
20260902110616 60 161 4.0 6.0 0.00 0.00 0.00 82 1012.1
20260902110112 60 180 2.0 2.0 0.00 0.00 0.00 82 1012.8
20260902105606 60 179 3.0 6.0 0.00 0.00 0.00 82 1012.5
20260902105101 60 175 2.0 2.0 0.00 0.00 0.00 83 1012.8
20260902104556 60 158 2.0 2.0 0.00 0.00 0.00 83 1012.5
20260902104051 60 182 4.0 5.0 0.00 0.00 0.00 83 1012.5
20260902103546 60 179 2.0 2.0 0.00 0.00 0.00 83 1012.5
20260902103041 60 174 1.0 2.0 0.00 0.00 0.00 83 1012.8
20260902102538 60 184 3.0 3.0 0.00 0.00 0.00 83 1012.8
20260902102035 60 176 1.0 2.0 0.00 0.00 0.00 84 1012.8
20260902101530 60 149 2.0 3.0 0.00 0.00 0.00 84 1013.2
20260902101028 60 158 4.0 6.0 0.00 0.00 0.00 84 1013.2
20260902100523 59 189 2.0 2.0 0.00 0.00 0.00 84 1013.2
20260902100018 59 197 1.0 1.0 0.00 0.00 0.00 85 1013.2
20260902095517 59 191 3.0 3.0 0.00 0.00 0.00 85 1013.2
20260902095016 59 178 1.0 1.0 0.00 0.00 0.00 85 1013.2
20260902094512 59 181 3.0 3.0 0.00 0.00 0.00 85 1013.2
20260902094007 59 154 3.0 3.0 0.00 0.00 0.00 84 1013.2
20260902093503 59 129 3.0 5.0 0.00 0.00 0.00 84 1013.2
20260902093002 59 196 0.0 1.0 0.00 0.00 0.00 83 1013.2
20260902092457 60 204 2.0 2.0 0.00 0.00 0.00 83 1013.2
20260902091956 60 209 2.0 2.0 0.00 0.00 0.00 82 1013.2
20260902091451 60 175 2.0 2.0 0.00 0.00 0.00 82 1013.2
20260902090948 60 160 3.0 3.0 0.00 0.00 0.00 81 1013.2
20260902090443 60 164 5.0 6.0 0.00 0.00 0.00 81 1013.5
20260902085941 60 165 3.0 3.0 0.00 0.00 0.00 81 1013.5
20260902085437 60 181 2.0 2.0 0.00 0.00 0.00 80 1013.5
20260902084932 61 178 4.0 5.0 0.00 0.00 0.00 80 1013.5
20260902084429 60 178 2.0 2.0 0.00 0.00 0.00 80 1013.5
20260902083919 60 186 1.0 2.0 0.00 0.00 0.00 80 1013.8
20260902083418 60 187 1.0 2.0 0.00 0.00 0.00 80 1013.8
20260902082913 60 199 0.0 0.0 0.00 0.00 0.00 80 1013.8
20260902082409 60 195 1.0 1.0 0.00 0.00 0.00 80 1013.8
20260902081906 61 194 1.0 1.0 0.00 0.00 0.00 80 1013.8
20260902081401 60 202 0.0 1.0 0.00 0.00 0.00 80 1013.8
20260902080856 60 206 2.0 2.0 0.00 0.00 0.00 80 1014.2
20260902080352 60 199 1.0 2.0 0.00 0.00 0.00 80 1014.2
20260902075851 60 194 1.0 1.0 0.00 0.00 0.00 80 1014.2
20260902075348 60 201 1.0 2.0 0.00 0.00 0.00 80 1013.8
20260902074843 60 211 3.0 5.0 0.00 0.00 0.00 80 1013.8
20260902074338 60 184 4.0 5.0 0.00 0.00 0.00 80 1014.2
20260902073833 60 181 4.0 5.0 0.00 0.00 0.00 81 1013.8
20260902073330 60 168 2.0 2.0 0.00 0.00 0.00 82 1013.8
20260902072826 60 170 2.0 5.0 0.00 0.00 0.00 81 1013.8
20260902072320 60 192 5.0 7.0 0.00 0.00 0.00 82 1013.8
20260902071817 60 165 5.0 7.0 0.00 0.00 0.00 82 1014.2
20260902071312 60 195 4.0 5.0 0.00 0.00 0.00 83 1014.2
20260902070808 60 183 3.0 5.0 0.00 0.00 0.00 83 1014.2
20260902070308 60 164 5.0 6.0 0.00 0.00 0.00 84 1014.2
20260902065807 60 204 2.0 2.0 0.00 0.00 0.00 84 1014.2
20260902065306 61 188 3.0 5.0 0.00 0.00 0.00 84 1014.2
20260902064757 61 199 4.0 5.0 0.00 0.00 0.00 84 1014.2
20260902064253 61 174 4.0 5.0 0.00 0.00 0.00 84 1014.5
20260902063749 61 169 1.0 3.0 0.00 0.00 0.00 84 1014.2
20260902063243 61 190 1.0 2.0 0.00 0.00 0.00 83 1014.2
20260902062737 61 170 5.0 6.0 0.00 0.00 0.00 83 1014.5
20260902062232 62 191 1.0 1.0 0.00 0.00 0.00 83 1014.2
20260902061731 62 165 5.0 7.0 0.00 0.00 0.00 82 1014.2
20260902061227 62 159 3.0 3.0 0.00 0.00 0.00 82 1014.5
20260902060724 62 201 3.0 5.0 0.00 0.00 0.00 82 1014.5
20260902060219 62 194 2.0 2.0 0.00 0.00 0.00 81 1014.5
20260902055714 62 209 3.0 5.0 0.00 0.00 0.00 81 1014.5
20260902055210 62 214 1.0 2.0 0.00 0.00 0.00 81 1014.9
20260902054705 62 150 9.0 10.0 0.00 0.00 0.00 81 1014.5
20260902054155 63 189 1.0 2.0 0.00 0.00 0.00 80 1014.5
20260902053650 62 175 2.0 3.0 0.00 0.00 0.00 80 1014.9
20260902053145 63 167 3.0 5.0 0.00 0.00 0.00 80 1014.5
20260902052644 63 198 1.0 2.0 0.00 0.00 0.00 80 1014.9
20260902052140 63 189 3.0 3.0 0.00 0.00 0.00 80 1014.9
20260902051639 63 194 1.0 1.0 0.00 0.00 0.00 80 1014.9
20260902051133 63 195 3.0 3.0 0.00 0.00 0.00 80 1014.9
20260902050627 63 185 2.0 3.0 0.00 0.00 0.00 80 1014.9
20260902050122 62 189 1.0 2.0 0.00 0.00 0.00 80 1014.9
20260902045618 62 190 2.0 2.0 0.00 0.00 0.00 80 1014.9
20260902045109 62 195 0.0 0.0 0.00 0.00 0.00 80 1014.9
20260902044609 62 207 0.0 0.0 0.00 0.00 0.00 80 1014.9
20260902044105 62 191 0.0 0.0 0.00 0.00 0.00 80 1014.5
20260902043559 63 184 0.0 0.0 0.00 0.00 0.00 79 1014.9
20260902043054 63 189 0.0 0.0 0.00 0.00 0.00 79 1014.9
20260902042553 63 200 0.0 0.0 0.00 0.00 0.00 79 1014.9
20260902042049 63 202 0.0 1.0 0.00 0.00 0.00 79 1014.5
20260902041548 63 211 0.0 0.0 0.00 0.00 0.00 79 1014.5
20260902041043 63 212 1.0 1.0 0.00 0.00 0.00 79 1015.2
20260902040538 63 197 2.0 2.0 0.00 0.00 0.00 79 1014.9
20260902040033 63 197 1.0 1.0 0.00 0.00 0.00 79 1015.2
20260902035531 63 225 2.0 5.0 0.00 0.00 0.00 79 1014.9
20260902035027 63 197 3.0 5.0 0.00 0.00 0.00 78 1014.5
20260902034526 63 157 4.0 5.0 0.00 0.00 0.00 78 1015.2
20260902034025 63 185 1.0 2.0 0.00 0.00 0.00 78 1014.9
20260902033525 63 199 0.0 0.0 0.00 0.00 0.00 78 1014.5
20260902033020 63 173 3.0 5.0 0.00 0.00 0.00 78 1014.5
20260902032514 63 149 5.0 6.0 0.00 0.00 0.00 78 1014.5
20260902032008 63 202 2.0 3.0 0.00 0.00 0.00 78 1014.9
20260902031503 63 174 2.0 2.0 0.00 0.00 0.00 78 1014.5
20260902030959 63 198 2.0 3.0 0.00 0.00 0.00 77 1014.9
20260902030454 63 218 3.0 5.0 0.00 0.00 0.00 77 1014.9
20260902025952 63 194 2.0 2.0 0.00 0.00 0.00 77 1014.5
20260902025448 63 208 1.0 2.0 0.00 0.00 0.00 77 1014.2
20260902024949 64 151 0.0 0.0 0.00 0.00 0.00 77 1014.9
20260902024444 64 192 0.0 0.0 0.00 0.00 0.00 76 1014.5
20260902023944 64 213 1.0 1.0 0.00 0.00 0.00 76 1014.5
20260902023440 64 214 1.0 1.0 0.00 0.00 0.00 76 1014.5
20260902022939 64 222 2.0 2.0 0.00 0.00 0.00 75 1014.5
20260902022434 64 211 0.0 1.0 0.00 0.00 0.00 75 1014.5
20260902021930 64 193 2.0 5.0 0.00 0.00 0.00 75 1014.5
20260902021425 64 231 3.0 3.0 0.00 0.00 0.00 75 1014.5
20260902020921 64 216 1.0 1.0 0.00 0.00 0.00 75 1014.2
20260902020417 64 179 1.0 2.0 0.00 0.00 0.00 75 1014.9
20260902015912 64 201 0.0 0.0 0.00 0.00 0.00 75 1014.5
20260902015407 64 206 0.0 0.0 0.00 0.00 0.00 76 1014.5
20260902014902 64 213 0.0 0.0 0.00 0.00 0.00 75 1014.5
20260902014359 64 195 1.0 1.0 0.00 0.00 0.00 76 1014.5
20260902013858 64 206 1.0 1.0 0.00 0.00 0.00 76 1014.2
20260902013354 64 206 0.0 0.0 0.00 0.00 0.00 77 1014.2
20260902012849 64 219 5.0 6.0 0.00 0.00 0.00 77 1014.5
20260902012345 63 229 4.0 5.0 0.00 0.00 0.00 77 1014.5
20260902011840 63 195 3.0 3.0 0.00 0.00 0.00 77 1014.5
20260902011335 64 192 2.0 2.0 0.00 0.00 0.00 77 1014.5
20260902010834 64 170 2.0 3.0 0.00 0.00 0.00 77 1014.5
20260902010329 64 231 6.0 8.0 0.00 0.00 0.00 76 1014.5
20260902005828 64 223 3.0 3.0 0.00 0.00 0.00 77 1014.5
20260902005323 64 201 3.0 5.0 0.00 0.00 0.00 76 1014.2
20260902004819 65 192 2.0 2.0 0.00 0.00 0.00 75 1014.2
20260902004313 65 176 3.0 3.0 0.00 0.00 0.00 75 1014.5
20260902003808 65 197 3.0 6.0 0.00 0.00 0.00 74 1014.5
20260902003303 65 219 3.0 5.0 0.00 0.00 0.00 74 1014.2
20260902002759 66 177 2.0 3.0 0.00 0.00 0.00 73 1014.2
20260902002258 66 277 3.0 3.0 0.00 0.00 0.00 73 1014.2
20260902001754 66 285 6.0 14.0 0.00 0.00 0.00 71 1014.2
20260902001250 67 233 4.0 6.0 0.00 0.00 0.00 70 1014.2
20260902000749 67 213 0.0 0.0 0.00 0.00 0.00 69 1013.8
20260902000244 67 237 0.0 0.0 0.00 0.00 0.00 68 1013.8
20260901235739 67 211 0.0 0.0 0.00 0.00 0.00 68 1013.8
20260901235234 67 178 0.0 0.0 0.00 0.00 0.00 68 1013.8
20260901234727 68 216 0.0 0.0 0.00 0.00 0.00 68 1014.2
20260901234227 67 198 0.0 0.0 0.00 0.00 0.00 67 1014.2
20260901233722 67 232 4.0 6.0 0.00 0.00 0.00 67 1014.2
20260901233219 67 197 0.0 1.0 0.00 0.00 0.00 68 1013.8
20260901232718 67 204 0.0 0.0 0.00 0.00 0.00 68 1013.8
20260901232214 67 212 2.0 3.0 0.00 0.00 0.00 68 1014.2
20260901231710 68 263 4.0 7.0 0.00 0.00 0.00 68 1014.2
20260901231206 68 204 0.0 0.0 0.00 0.00 0.00 68 1014.2
20260901230701 67 213 0.0 1.0 0.00 0.00 0.00 69 1014.2
20260901230201 67 211 1.0 2.0 0.00 0.00 0.00 70 1014.2
20260901225656 67 225 4.0 7.0 0.00 0.00 0.00 69 1014.2
20260901225151 67 227 1.0 2.0 0.00 0.00 0.00 69 1014.2
20260901224647 67 171 3.0 5.0 0.00 0.00 0.00 69 1014.2
20260901224143 67 192 3.0 5.0 0.00 0.00 0.00 68 1014.2
20260901223638 67 200 3.0 5.0 0.00 0.00 0.00 68 1014.2
20260901223133 67 192 1.0 2.0 0.00 0.00 0.00 69 1014.2
20260901222629 67 179 0.0 0.0 0.00 0.00 0.00 69 1014.2
20260901222125 67 190 0.0 2.0 0.00 0.00 0.00 69 1014.2
20260901221621 67 185 0.0 0.0 0.00 0.00 0.00 69 1014.2
20260901221117 67 197 2.0 3.0 0.00 0.00 0.00 69 1014.2
20260901220616 67 196 0.0 0.0 0.00 0.00 0.00 69 1014.2
20260901220115 67 201 0.0 0.0 0.00 0.00 0.00 68 1014.2
20260901215613 68 161 6.0 7.0 0.00 0.00 0.00 68 1014.2
20260901215108 67 220 0.0 0.0 0.00 0.00 0.00 68 1013.8
20260901214606 67 229 3.0 3.0 0.00 0.00 0.00 69 1014.2
20260901214101 67 190 0.0 0.0 0.00 0.00 0.00 69 1014.2
20260901213600 67 188 0.0 0.0 0.00 0.00 0.00 69 1013.8
20260901213055 67 197 6.0 7.0 0.00 0.00 0.00 69 1013.8
20260901212549 67 176 7.0 10.0 0.00 0.00 0.00 69 1014.2
20260901212046 67 172 0.0 1.0 0.00 0.00 0.00 70 1014.2
20260901211546 67 161 3.0 5.0 0.00 0.00 0.00 70 1014.2
20260901211044 67 209 2.0 3.0 0.00 0.00 0.00 70 1014.2
20260901210544 67 196 5.0 8.0 0.00 0.00 0.00 69 1014.2
20260901210040 67 138 4.0 6.0 0.00 0.00 0.00 70 1013.8
20260901205535 67 213 4.0 6.0 0.00 0.00 0.00 70 1014.2
20260901205029 67 187 3.0 3.0 0.00 0.00 0.00 69 1013.8
20260901204526 67 195 2.0 2.0 0.00 0.00 0.00 68 1014.2
20260901204021 67 227 7.0 9.0 0.00 0.00 0.00 68 1014.2
20260901203521 68 204 3.0 5.0 0.00 0.00 0.00 68 1014.2
20260901203016 68 215 3.0 5.0 0.00 0.00 0.00 67 1014.2
20260901202511 68 219 9.0 11.0 0.00 0.00 0.00 66 1014.2
20260901202007 68 194 2.0 5.0 0.00 0.00 0.00 66 1014.2
20260901201502 68 147 8.0 9.0 0.00 0.00 0.00 66 1014.2
20260901201002 68 226 0.0 1.0 0.00 0.00 0.00 66 1014.2
20260901200456 68 198 0.0 0.0 0.00 0.00 0.00 68 1013.8
20260901195956 67 152 1.0 2.0 0.00 0.00 0.00 69 1014.2
20260901195454 66 132 0.0 0.0 0.00 0.00 0.00 72 1014.2
20260901194948 66 180 6.0 8.0 0.00 0.00 0.00 73 1014.2
20260901194444 66 180 0.0 1.0 0.00 0.00 0.00 74 1014.2
20260901193940 66 203 4.0 6.0 0.00 0.00 0.00 74 1014.2
20260901193439 66 200 1.0 2.0 0.00 0.00 0.00 74 1014.2
20260901192939 66 212 0.0 0.0 0.00 0.00 0.00 74 1014.5
20260901192435 66 186 1.0 3.0 0.00 0.00 0.00 74 1014.9
20260901191931 66 189 3.0 5.0 0.00 0.00 0.00 74 1014.5
20260901191426 66 153 4.0 5.0 0.00 0.00 0.00 75 1014.5
20260901190917 66 184 1.0 2.0 0.00 0.00 0.00 72 1014.9
20260901190417 66 180 3.0 5.0 0.00 0.00 0.00 73 1014.5
20260901185915 66 190 7.0 9.0 0.00 0.00 0.00 74 1014.5
20260901185414 66 201 3.0 5.0 0.00 0.00 0.00 74 1014.5
20260901184909 66 202 5.0 6.0 0.00 0.00 0.00 76 1014.9
20260901184404 66 145 1.0 2.0 0.00 0.00 0.00 76 1014.5
20260901183904 65 135 7.0 8.0 0.00 0.00 0.00 77 1014.9
20260901183404 64 193 3.0 3.0 0.00 0.00 0.00 79 1014.9
20260901182900 64 150 4.0 5.0 0.00 0.00 0.00 80 1014.9
20260901182355 64 167 5.0 6.0 0.00 0.00 0.00 80 1014.9
20260901181850 64 178 3.0 5.0 0.00 0.00 0.00 81 1014.9
20260901181345 63 160 1.0 3.0 0.00 0.00 0.00 81 1015.2
20260901180844 63 118 7.0 7.0 0.00 0.00 0.00 80 1014.9
20260901180343 64 203 5.0 7.0 0.00 0.00 0.00 80 1014.9
20260901175842 64 175 1.0 2.0 0.00 0.00 0.00 80 1014.9
20260901175337 64 184 6.0 7.0 0.00 0.00 0.00 79 1015.2
20260901174832 64 191 2.0 2.0 0.00 0.00 0.00 81 1015.2
20260901174328 63 188 2.0 3.0 0.00 0.00 0.00 81 1015.2
20260901173823 63 180 4.0 5.0 0.00 0.00 0.00 82 1014.9
20260901173318 62 192 2.0 2.0 0.00 0.00 0.00 83 1014.9
20260901172815 62 200 3.0 3.0 0.00 0.00 0.00 83 1014.9
20260901172314 62 186 3.0 5.0 0.00 0.00 0.00 83 1014.9
20260901171811 62 149 3.0 3.0 0.00 0.00 0.00 84 1014.9
20260901171311 62 127 5.0 8.0 0.00 0.00 0.00 84 1014.9
20260901170805 62 194 3.0 3.0 0.00 0.00 0.00 85 1014.9
20260901170304 62 195 3.0 5.0 0.00 0.00 0.00 85 1014.9
20260901165803 62 164 3.0 3.0 0.00 0.00 0.00 86 1014.9
20260901165258 61 181 2.0 2.0 0.00 0.00 0.00 88 1014.9
20260901164754 61 197 4.0 5.0 0.00 0.00 0.00 89 1014.9
20260901164250 60 203 2.0 2.0 0.00 0.00 0.00 90 1014.9
20260901163744 60 166 3.0 3.0 0.00 0.00 0.00 91 1014.9
20260901163239 60 211 3.0 3.0 0.00 0.00 0.00 93 1014.9
20260901162734 59 207 1.0 1.0 0.00 0.00 0.00 93 1015.2
20260901162233 59 130 3.0 3.0 0.00 0.00 0.00 94 1015.2
20260901161732 59 186 2.0 2.0 0.00 0.00 0.00 94 1015.2
20260901161227 59 168 2.0 2.0 0.00 0.00 0.00 94 1015.2
20260901160723 59 198 1.0 1.0 0.00 0.00 0.00 94 1015.2
20260901160219 59 152 2.0 2.0 0.00 0.00 0.00 94 1015.2
20260901155717 59 178 1.0 3.0 0.00 0.00 0.00 94 1015.2
20260901155213 59 199 2.0 3.0 0.00 0.00 0.00 93 1015.2
20260901154708 59 205 2.0 2.0 0.00 0.00 0.00 93 1015.2
20260901154203 59 173 3.0 3.0 0.00 0.00 0.00 92 1015.2
20260901153658 59 192 2.0 2.0 0.00 0.00 0.00 92 1014.9
20260901153157 60 179 1.0 2.0 0.00 0.00 0.00 91 1014.9
20260901152652 60 201 1.0 1.0 0.00 0.00 0.00 91 1015.2
20260901152150 60 190 2.0 2.0 0.00 0.00 0.00 90 1015.2
20260901151646 60 190 1.0 2.0 0.00 0.00 0.00 90 1014.9
20260901151146 60 180 3.0 3.0 0.00 0.00 0.00 89 1015.2
20260901150644 60 187 2.0 3.0 0.00 0.00 0.00 88 1014.9
20260901150138 60 197 2.0 2.0 0.00 0.00 0.00 87 1014.9
20260901145636 60 210 3.0 3.0 0.00 0.00 0.00 87 1015.2
20260901145135 60 193 4.0 5.0 0.00 0.00 0.00 86 1014.9
20260901144631 60 197 3.0 5.0 0.00 0.00 0.00 85 1014.9
20260901144126 60 191 2.0 2.0 0.00 0.00 0.00 85 1014.5
20260901143621 60 180 3.0 3.0 0.00 0.00 0.00 85 1014.5
20260901143118 60 206 3.0 3.0 0.00 0.00 0.00 85 1014.9
20260901142614 60 203 5.0 6.0 0.00 0.00 0.00 85 1014.9
20260901142113 60 199 1.0 2.0 0.00 0.00 0.00 84 1014.5
20260901141608 60 146 5.0 6.0 0.00 0.00 0.00 84 1014.5
20260901141103 61 172 3.0 3.0 0.00 0.00 0.00 84 1014.5
20260901140602 60 158 3.0 5.0 0.00 0.00 0.00 84 1014.2
20260901135601 60 181 3.0 3.0 0.00 0.00 0.00 84 1014.2
20260901135056 60 186 2.0 2.0 0.00 0.00 0.00 84 1014.2
20260901134552 60 161 3.0 3.0 0.00 0.00 0.00 84 1014.2
20260901134046 60 183 2.0 2.0 0.00 0.00 0.00 84 1014.2
20260901133540 60 120 3.0 5.0 0.00 0.00 0.00 84 1014.2
20260901133039 60 179 3.0 3.0 0.00 0.00 0.00 84 1014.2
20260901132538 60 193 2.0 2.0 0.00 0.00 0.00 84 1014.2
20260901132032 60 181 2.0 3.0 0.00 0.00 0.00 84 1014.2
20260901131526 60 179 2.0 2.0 0.00 0.00 0.00 85 1014.2
20260901131022 60 192 1.0 1.0 0.00 0.00 0.00 85 1014.5
20260901130516 60 172 2.0 3.0 0.00 0.00 0.00 85 1014.5
20260901130010 60 187 1.0 2.0 0.00 0.00 0.00 85 1014.2
20260901125508 60 180 1.0 2.0 0.00 0.00 0.00 85 1014.2
20260901125003 60 200 0.0 1.0 0.00 0.00 0.00 85 1014.2
20260901124458 60 182 1.0 2.0 0.00 0.00 0.00 85 1014.2
20260901123952 60 182 2.0 2.0 0.00 0.00 0.00 86 1014.5